VK2RZ Weather Reports


Display with metric or nautical units.
time (UTC)temp
F
wind
direction
speed
MPH
gust
MPH
rain 1hr
in
rain 24hr
in
rain mn
in
humidity
%
barometer
mb
20260905180739 61 251 6.0 10.0 0.00 0.00 0.00 5 1011.3
20260905175739 61 291 1.0 11.0 0.00 0.00 0.00 5 1010.9
20260905174739 61 305 5.0 9.0 0.00 0.00 0.00 5 1010.8
20260905173739 62 223 5.0 11.0 0.00 0.00 0.00 5 1010.9
20260905172739 62 268 2.0 8.0 0.00 0.00 0.00 5 1011.1
20260905171738 63 260 1.0 4.0 0.00 0.00 0.00 5 1011.0
20260905170738 64 289 2.0 6.0 0.00 0.00 0.00 4 1011.2
20260905165738 64 249 1.0 3.0 0.00 0.00 0.00 4 1011.2
20260905164738 65 235 6.0 18.0 0.00 0.00 0.00 4 1011.3
20260905163737 65 231 5.0 10.0 0.00 0.00 0.00 4 1011.4
20260905162737 65 231 5.0 11.0 0.00 0.00 0.00 4 1011.3
20260905161737 66 231 3.0 11.0 0.00 0.00 0.00 5 1011.2
20260905160736 66 202 5.0 18.0 0.00 0.00 0.00 5 1011.3
20260905155736 66 226 3.0 12.0 0.00 0.00 0.00 5 1011.4
20260905154736 67 243 4.0 8.0 0.00 0.00 0.00 5 1011.5
20260905153736 68 258 4.0 12.0 0.00 0.00 0.00 5 1011.4
20260905152736 68 260 12.0 12.0 0.00 0.00 0.00 5 1010.8
20260905151736 68 245 1.0 8.0 0.00 0.00 0.00 5 1010.7
20260905150736 67 262 4.0 15.0 0.00 0.00 0.00 5 1010.4
20260905145736 66 259 4.0 5.0 0.00 0.00 0.00 6 1010.3
20260905144736 66 257 1.0 4.0 0.00 0.00 0.00 6 1010.2
20260905143736 66 216 3.0 6.0 0.00 0.00 0.00 6 1010.1
20260905142736 67 208 2.0 5.0 0.00 0.00 0.00 6 1010.1
20260905141736 67 228 3.0 4.0 0.00 0.00 0.00 6 1010.0
20260905140736 68 248 2.0 5.0 0.00 0.00 0.00 6 1009.9
20260905135736 69 237 2.0 4.0 0.00 0.00 0.00 5 1009.8
20260905134736 69 261 4.0 9.0 0.00 0.00 0.00 5 1009.6
20260905133736 68 228 5.0 9.0 0.00 0.00 0.00 5 1009.4
20260905132736 67 0 0.0 8.0 0.00 0.00 0.00 6 1009.2
20260905131736 66 299 4.0 6.0 0.00 0.00 0.00 6 1009.3
20260905130736 66 254 3.0 5.0 0.00 0.00 0.00 6 1009.2
20260905125736 65 202 3.0 3.0 0.00 0.00 0.00 6 1009.0
20260905124736 65 202 1.0 2.0 0.00 0.00 0.00 6 1008.8
20260905123736 66 0 0.0 2.0 0.00 0.00 0.00 6 1008.8
20260905122736 67 202 1.0 3.0 0.00 0.00 0.00 6 1008.9
20260905121736 66 201 1.0 2.0 0.00 0.00 0.00 6 1008.8
20260905120736 66 0 0.0 0.0 0.00 0.00 0.00 6 1008.9
20260905115736 67 0 0.0 2.0 0.00 0.00 0.00 6 1008.9
20260905114736 67 0 0.0 0.0 0.00 0.00 0.00 6 1009.0
20260905113736 68 0 0.0 2.0 0.00 0.00 0.00 6 1009.1
20260905112736 69 0 0.0 4.0 0.00 0.00 0.00 6 1009.1
20260905111735 69 0 0.0 3.0 0.00 0.00 0.00 6 1009.0
20260905110735 70 211 1.0 3.0 0.00 0.00 0.00 5 1009.0
20260905105735 70 193 3.0 7.0 0.00 0.00 0.00 5 1008.8
20260905104739 71 193 1.0 8.0 0.00 0.00 0.00 5 1008.8
20260905104734 71 193 1.0 8.0 0.00 0.00 0.00 5 1008.8
20260905103734 71 194 1.0 4.0 0.00 0.00 0.00 5 1008.8
20260905102734 71 256 3.0 10.0 0.00 0.00 0.00 5 1008.7
20260905101734 71 150 3.0 5.0 0.00 0.00 0.00 5 1008.8
20260905100734 71 288 3.0 10.0 0.00 0.00 0.00 5 1008.6
20260905095734 72 90 2.0 6.0 0.00 0.00 0.00 5 1008.7
20260905094734 72 65 2.0 10.0 0.00 0.00 0.00 5 1008.6
20260905093733 72 85 2.0 5.0 0.00 0.00 0.00 5 1008.6
20260905092731 71 207 1.0 6.0 0.00 0.00 0.00 5 1008.7
20260905091731 71 139 2.0 4.0 0.00 0.00 0.00 5 1008.7
20260905090731 71 122 3.0 5.0 0.00 0.00 0.00 5 1008.7
20260905085731 71 111 8.0 9.0 0.00 0.00 0.00 5 1008.7
20260905084731 71 141 6.0 6.0 0.00 0.00 0.00 5 1008.7
20260905083731 71 101 3.0 6.0 0.00 0.00 0.00 5 1008.9
20260905082731 71 118 5.0 8.0 0.00 0.00 0.00 5 1009.3
20260905081731 71 92 4.0 6.0 0.00 0.00 0.00 6 1009.6
20260905080731 71 222 1.0 5.0 0.00 0.00 0.00 6 1009.9
20260905075731 71 254 3.0 12.0 0.00 0.00 0.00 6 1010.5
20260905074731 71 262 7.0 11.0 0.00 0.00 0.00 6 1010.5
20260905073731 70 231 3.0 16.0 0.00 0.00 0.00 6 1010.6
20260905072731 70 222 13.0 14.0 0.00 0.00 0.00 6 1010.6
20260905071731 71 240 13.0 18.0 0.00 0.00 0.00 6 1010.5
20260905070731 73 260 8.0 24.0 0.00 0.00 0.00 5 1010.3
20260905065731 74 233 5.0 17.0 0.00 0.00 0.00 5 1009.3
20260905064731 74 231 10.0 18.0 0.00 0.00 0.00 5 1009.7
20260905063731 74 247 5.0 24.0 0.00 0.00 0.00 5 1009.5
20260905062731 84 254 29.0 39.0 0.00 0.00 0.00 3 1008.7
20260905061731 85 175 8.0 13.0 0.00 0.00 0.00 3 1007.3
20260905060731 85 212 4.0 8.0 0.00 0.00 0.00 3 1007.3
20260905055731 86 256 3.0 9.0 0.00 0.00 0.00 3 1007.0
20260905054731 86 216 4.0 12.0 0.00 0.00 0.00 3 1006.5
20260905053731 86 282 8.0 12.0 0.00 0.00 0.00 3 1006.2
20260905052731 87 193 2.0 9.0 0.00 0.00 0.00 3 1006.1
20260905051731 87 291 3.0 17.0 0.00 0.00 0.00 2 1006.1
20260905050731 87 245 4.0 12.0 0.00 0.00 0.00 2 1006.0
20260905045731 88 262 14.0 14.0 0.00 0.00 0.00 2 1006.1
20260905044731 89 219 4.0 20.0 0.00 0.00 0.00 2 1005.9
20260905043731 89 157 2.0 14.0 0.00 0.00 0.00 2 1006.2
20260905042731 89 214 1.0 16.0 0.00 0.00 0.00 3 1006.4
20260905041731 88 93 6.0 12.0 0.00 0.00 0.00 3 1006.4
20260905040731 87 23 6.0 7.0 0.00 0.00 0.00 3 1006.4
20260905035731 86 27 2.0 6.0 0.00 0.00 0.00 3 1006.8
20260905034731 83 74 3.0 6.0 0.00 0.00 0.00 4 1006.9
20260905033731 79 69 1.0 11.0 0.00 0.00 0.00 5 1007.0
20260905032731 81 57 5.0 12.0 0.00 0.00 0.00 4 1007.4
20260905031731 84 78 4.0 7.0 0.00 0.00 0.00 3 1007.9
20260905030731 83 52 2.0 7.0 0.00 0.00 0.00 3 1008.2
20260905025731 83 72 4.0 14.0 0.00 0.00 0.00 3 1008.5
20260905024731 83 58 3.0 12.0 0.00 0.00 0.00 3 1008.9
20260905023731 82 17 7.0 7.0 0.00 0.00 0.00 3 1009.3
20260905022731 82 62 6.0 10.0 0.00 0.00 0.00 4 1009.9
20260905021731 80 81 2.0 11.0 0.00 0.00 0.00 4 1010.1
20260905020731 81 66 2.0 7.0 0.00 0.00 0.00 4 1010.5
20260905015731 81 91 4.0 7.0 0.00 0.00 0.00 4 1010.7
20260905014731 80 132 8.0 9.0 0.00 0.00 0.00 4 1010.9
20260905013731 79 38 1.0 10.0 0.00 0.00 0.00 4 1011.4
20260905012731 78 60 3.0 9.0 0.00 0.00 0.00 4 1011.5
20260905011731 78 89 2.0 8.0 0.00 0.00 0.00 4 1011.7
20260905010731 77 45 6.0 8.0 0.00 0.00 0.00 4 1011.9
20260905005731 77 31 2.0 8.0 0.00 0.00 0.00 4 1012.2
20260905004731 76 6 2.0 9.0 0.00 0.00 0.00 4 1012.5
20260905003731 76 73 4.0 7.0 0.00 0.00 0.00 4 1012.8
20260905002731 73 133 2.0 5.0 0.00 0.00 0.00 4 1013.1
20260905001731 75 97 2.0 8.0 0.00 0.00 0.00 4 1013.2
20260905000731 75 272 2.0 5.0 0.00 0.00 0.00 4 1013.4
20260904235730 75 129 2.0 7.0 0.00 0.00 0.00 4 1013.7
20260904234730 74 143 4.0 6.0 0.00 0.00 0.00 4 1014.0
20260904233730 73 278 2.0 11.0 0.00 0.00 0.00 4 1014.3
20260904232730 70 237 3.0 6.0 0.00 0.00 0.00 5 1014.5
20260904231730 70 144 1.0 8.0 0.00 0.00 0.00 5 1014.4
20260904230730 70 123 2.0 7.0 0.00 0.00 0.00 5 1014.6
20260904225730 71 121 4.0 5.0 0.00 0.00 0.00 4 1014.7
20260904224730 71 168 3.0 4.0 0.00 0.00 0.00 5 1015.1
20260904223730 70 175 4.0 5.0 0.00 0.00 0.00 5 1015.1
20260904222730 69 243 1.0 9.0 0.00 0.00 0.00 5 1015.4
20260904221730 69 210 2.0 4.0 0.00 0.00 0.00 5 1015.7
20260904220730 68 253 4.0 7.0 0.00 0.00 0.00 5 1015.7
20260904215730 67 198 1.0 5.0 0.00 0.00 0.00 5 1015.7
20260904214730 66 0 0.0 2.0 0.00 0.00 0.00 5 1015.9
20260904213730 65 0 0.0 3.0 0.00 0.00 0.00 5 1015.9
20260904212730 64 228 3.0 4.0 0.00 0.00 0.00 5 1016.0
20260904211730 63 229 3.0 7.0 0.00 0.00 0.00 5 1015.9
20260904210730 63 254 5.0 5.0 0.00 0.00 0.00 6 1015.8
20260904205730 62 251 5.0 10.0 0.00 0.00 0.00 6 1016.0
20260904204730 62 239 2.0 8.0 0.00 0.00 0.00 6 1016.1
20260904203730 61 217 4.0 11.0 0.00 0.00 0.00 6 1016.0
20260904202730 61 218 4.0 5.0 0.00 0.00 0.00 6 1016.0
20260904201730 60 217 1.0 4.0 0.00 0.00 0.00 6 1016.0
20260904200730 60 219 2.0 4.0 0.00 0.00 0.00 6 1015.9
20260904195730 61 235 2.0 4.0 0.00 0.00 0.00 6 1016.0
20260904194730 60 232 2.0 5.0 0.00 0.00 0.00 6 1015.9
20260904193730 60 226 3.0 6.0 0.00 0.00 0.00 6 1015.6
20260904192730 60 250 1.0 5.0 0.00 0.00 0.00 6 1015.6
20260904191730 60 249 3.0 6.0 0.00 0.00 0.00 6 1015.7
20260904190730 60 241 2.0 4.0 0.00 0.00 0.00 6 1015.6
20260904185730 59 242 1.0 3.0 0.00 0.00 0.00 6 1015.8
20260904184730 59 233 1.0 3.0 0.00 0.00 0.00 6 1015.9
20260904183729 60 0 0.0 2.0 0.00 0.00 0.00 6 1016.0
20260904182729 60 234 2.0 4.0 0.00 0.00 0.00 6 1016.0
20260904181729 60 214 3.0 3.0 0.00 0.00 0.00 6 1016.1